カタログに戻る

KUIPER-00035

運用中通信LEO
NORAD 63748·PAYLOAD·🇺🇸 United States

打ち上げ Apr 28, 2025 から Cape Canaveral Space Force Station

Loading…

次のパス (今後24時間)

TLE

最新Source: CelesTrak SupGP

元期: Sep 14, 2026, 19:43 UTC

1 63748C 25088AA  26257.82181713  .00002973  00000+0  38917-3 0  2572
2 63748  51.9010 356.7455 0000477  92.1245 243.7228 14.79924797    10

AllMySatでKUIPER-00035をリアルタイム追跡

Download on the App Store